Minot AFB, ND

5:42 AM CST on November 20, 2019 (GMT -0600)
Minot Air Force Base

Weather History for KMIB - September, 2019

Change the Weather History Date:

Wednesday, September 11, 2019

  Actual Average Record
Temperature  
Mean Temperature 54 °F -  
Max Temperature 56 °F 70 °F 88 °F (2011)
Min Temperature 51 °F 45 °F 32 °F (2007)
Degree Days  
Heating Degree Days 11    
Growing Degree Days 4 (Base 50)    
Moisture  
Dew Point 51 °F    
Average Humidity 93    
Maximum Humidity 100    
Minimum Humidity 77    
Precipitation  
Precipitation 0.19 in - - ()
Sea Level Pressure  
Sea Level Pressure 30.17 in    
Wind  
Wind Speed 12 mph (ENE)    
Max Wind Speed 21 mph    
Max Gust Speed 26 mph    
Visibility 9 miles    
Events Rain    
Averages and records for this station are not official NWS values.
T = Trace of Precipitation, MM = Missing Value Source: NWS Daily Summary

Daily Weather History Graph

Daily Weather History Graph

Search for Another Location

Airport or City:

Astronomy

Sep. 11, 2019 Rise Set
Actual Time 7:16 AM CDT 8:06 PM CDT
Civil Twilight 6:44 AM CDT 8:38 PM CDT
Nautical Twilight 6:06 AM CDT 9:16 PM CDT
Astronomical Twilight 5:26 AM CDT 9:56 PM CDT
Moon 7:34 PM CDT (9/11) 4:23 AM CDT (9/11)
Length of Visible Light 13h 53m
Length of Day
12h 50m
Waxing Gibbous, 95% of the Moon is Illuminated
Sep 11
Waxing Gibbous
Sep 13
Full
Sep 21
Last Quarter
Sep 28
New
Oct 5
First Quarter

Hourly Weather History & Observations

Time (CDT) Temp. Dew Point Humidity Pressure Visibility Wind Dir Wind Speed Gust Speed Precip Events Conditions
12:36 AM 53.6 °F 51.8 °F 94% 30.13 in 10.0 mi East 13.8 mph - N/A   Overcast
12:56 AM 53.8 °F 51.3 °F 91% 30.13 in 10.0 mi East 13.8 mph - N/A   Overcast
1:56 AM 53.2 °F 50.7 °F 91% 30.13 in 10.0 mi East 11.5 mph - N/A   Mostly Cloudy
2:56 AM 52.9 °F 50.5 °F 92% 30.13 in 10.0 mi East 9.2 mph - N/A   Clear
3:56 AM 52.2 °F 50.2 °F 93% 30.13 in 10.0 mi East 8.1 mph - N/A   Overcast
4:56 AM 52.2 °F 50.5 °F 94% 30.15 in 10.0 mi East 9.2 mph - N/A   Mostly Cloudy
5:56 AM 51.8 °F 50.4 °F 95% 30.16 in 10.0 mi East 5.8 mph - N/A   Overcast
6:01 AM 51.8 °F 50.0 °F 94% 30.13 in 10.0 mi ENE 5.8 mph - N/A   Overcast
6:03 AM 51.8 °F 50.0 °F 94% 30.13 in 10.0 mi ENE 5.8 mph - N/A Rain Light Rain
6:11 AM 51.8 °F 50.0 °F 94% 30.16 in 10.0 mi ENE 6.9 mph - N/A Rain Light Rain
6:16 AM 51.8 °F 50.0 °F 94% 30.16 in 6.0 mi ENE 6.9 mph - N/A Rain Light Rain
6:31 AM 51.8 °F 50.0 °F 94% 30.17 in 9.0 mi ENE 6.9 mph - N/A Rain Light Rain
6:56 AM 51.4 °F 50.4 °F 96% 30.18 in 10.0 mi ENE 6.9 mph - 0.02 in   Light Drizzle
7:01 AM 51.8 °F 50.0 °F 94% 30.18 in 10.0 mi ENE 6.9 mph - N/A Rain Light Rain
7:06 AM 51.8 °F 50.0 °F 94% 30.18 in 10.0 mi ENE 6.9 mph - N/A Rain Light Rain
7:30 AM 51.8 °F 50.0 °F 94% 30.18 in 10.0 mi ENE 10.4 mph - N/A   Overcast
7:35 AM 51.8 °F 50.0 °F 94% 30.18 in 10.0 mi ENE 10.4 mph - N/A   Overcast
7:42 AM 51.8 °F 50.0 °F 94% 30.18 in 10.0 mi ENE 9.2 mph - N/A   Overcast
7:49 AM 51.8 °F 50.0 °F 94% 30.18 in 10.0 mi ENE 6.9 mph - N/A   Light Drizzle
7:56 AM 51.4 °F 50.5 °F 97% 30.18 in 10.0 mi ENE 8.1 mph - 0.00 in   Light Drizzle
8:56 AM 51.8 °F 50.9 °F 97% 30.17 in 10.0 mi ENE 12.7 mph - 0.01 in   Light Drizzle
9:51 AM 51.8 °F 51.8 °F 100% 30.18 in 9.0 mi East 13.8 mph - N/A   Overcast
9:56 AM 52.3 °F 51.4 °F 97% 30.19 in 10.0 mi ENE 12.7 mph - 0.01 in   Overcast
10:16 AM 51.8 °F 51.8 °F 100% 30.19 in 10.0 mi East 13.8 mph - N/A   Overcast
10:56 AM 52.9 °F 51.8 °F 96% 30.19 in 10.0 mi East 13.8 mph 21.9 mph N/A   Overcast
11:21 AM 53.6 °F 51.8 °F 94% 30.19 in 6.0 mi East 17.3 mph 20.7 mph N/A   Overcast
11:36 AM 53.6 °F 51.8 °F 94% 30.19 in 9.0 mi East 13.8 mph - N/A   Overcast
11:56 AM 52.9 °F 51.8 °F 96% 30.19 in 10.0 mi East 13.8 mph - N/A   Overcast
12:11 PM 53.6 °F 51.8 °F 94% 30.19 in 10.0 mi East 13.8 mph - N/A   Overcast
12:16 PM 53.6 °F 53.6 °F 100% 30.18 in 10.0 mi East 13.8 mph - N/A   Overcast
12:36 PM 53.6 °F 51.8 °F 94% 30.18 in 10.0 mi East 15.0 mph - N/A   Overcast
12:56 PM 54.5 °F 51.3 °F 89% 30.19 in 10.0 mi East 17.3 mph - N/A   Overcast
1:56 PM 55.6 °F 50.5 °F 83% 30.19 in 10.0 mi East 15.0 mph - N/A   Overcast
2:26 PM 55.4 °F 50.0 °F 82% 30.18 in 10.0 mi East 19.6 mph - N/A   Overcast
2:36 PM 55.4 °F 50.0 °F 82% 30.18 in 10.0 mi East 15.0 mph - N/A   Overcast
2:56 PM 55.4 °F 50.4 °F 83% 30.18 in 10.0 mi East 13.8 mph - N/A   Overcast
3:06 PM 55.4 °F 50.0 °F 82% 30.18 in 10.0 mi East 11.5 mph - N/A   Overcast
3:11 PM 57.2 °F 50.0 °F 77% 30.18 in 10.0 mi East 13.8 mph - N/A   Overcast
3:56 PM 55.8 °F 49.6 °F 80% 30.18 in 10.0 mi East 13.8 mph - N/A   Overcast
4:56 PM 55.9 °F 49.5 °F 79% 30.17 in 10.0 mi East 16.1 mph - N/A   Overcast
5:56 PM 55.6 °F 49.8 °F 81% 30.16 in 10.0 mi East 15.0 mph - N/A   Overcast
6:21 PM 55.4 °F 50.0 °F 82% 30.16 in 10.0 mi East 11.5 mph - N/A   Overcast
6:56 PM 54.7 °F 50.9 °F 87% 30.16 in 10.0 mi East 12.7 mph - N/A   Overcast
7:35 PM 53.6 °F 51.8 °F 94% 30.18 in 10.0 mi ENE 11.5 mph - N/A Rain Light Rain
8:55 PM 53.6 °F 51.8 °F 94% 30.17 in 10.0 mi NE 9.2 mph - N/A   Overcast
8:56 PM 53.6 °F 51.3 °F 92% 30.17 in 10.0 mi NE 9.2 mph - 0.02 in   Overcast
9:06 PM 53.6 °F 51.8 °F 94% 30.17 in 10.0 mi NE 9.2 mph - N/A Rain Light Rain
9:56 PM 53.4 °F 51.4 °F 93% 30.22 in 6.0 mi North 4.6 mph - 0.02 in Rain Light Rain
10:26 PM 53.6 °F 51.8 °F 94% 30.18 in 3.0 mi NE 12.7 mph - N/A Rain Rain
10:51 PM 53.6 °F 51.8 °F 94% 30.15 in 5.0 mi ENE 16.1 mph - N/A Rain Light Rain
10:56 PM 52.7 °F 51.6 °F 96% 30.15 in 5.0 mi ENE 15.0 mph - 0.06 in Rain Light Rain
11:21 PM 51.8 °F 51.8 °F 100% 30.15 in 6.0 mi ENE 17.3 mph - N/A Rain Light Rain
11:26 PM 51.8 °F 51.8 °F 100% 30.14 in 6.0 mi ENE 19.6 mph 26.5 mph N/A Rain Rain
11:27 PM 51.8 °F 51.8 °F 100% 30.14 in 6.0 mi ENE 17.3 mph 26.5 mph N/A Rain Rain
11:32 PM 51.8 °F 51.8 °F 100% 30.13 in 6.0 mi ENE 20.7 mph 26.5 mph N/A Rain Light Rain
11:37 PM 51.8 °F 51.8 °F 100% 30.13 in 7.0 mi ENE 20.7 mph 26.5 mph N/A Rain Light Rain
11:47 PM 51.8 °F 51.8 °F 100% 30.12 in 10.0 mi ENE 20.7 mph - N/A Rain Light Rain
11:56 PM 52.3 °F 51.3 °F 96% 30.12 in 10.0 mi ENE 19.6 mph 26.5 mph 0.05 in Rain Light Rain